User: anonymous   Login
Location: Unspecified
(0.0000°N, 0.0000°E)
Time: 21:44:49
(UTC+00:00)
Language:

BUGSAT 1 - Orbit

View from above orbital plane
View from above orbital plane
View from above satellite
View from above satellite

Ground track
Ground track

The orbit data is extracted from the following two-line orbital elements,

1 40014U 14033E   18115.56292965  .00000473  00000-0  48434-4 0  9991
2 40014  97.9736  50.0631 0032304  12.4026 347.7982 14.95023104209879
Epoch (UTC): 25 April 2018 13:30:37
Eccentricity: 0.0032304
inclination: 97.9736°
perigee height: 560 km
apogee height: 605 km
right ascension of ascending node: 50.0631°
argument of perigee: 12.4026°
revolutions per day: 14.95023104
mean anomaly at epoch: 347.7982°
orbit number at epoch: 20987

The dashed part of the orbit path shows where the satellite is in the earth's shadow,  

DLR